SPHOS EPZP-EPZP

Flight info

Callsign SPHOS
Flight time 0h 2m
Altitude 1500
Route DCT
Aircraft R44/L-S/L

Departure

Time 2026-04-24 15:48
Airport Zielona Góra-Przylep Airfield (EPZP)

Arrival

Time 2026-04-24 15:51
Airport Zielona Góra-Przylep Airfield (EPZP)
Time Latitude Longitude Altitude Speed Heading
2026-04-24 15:42 51.97482 15.46405 251 ft 0 kts 99°
2026-04-24 15:46 51.97478 15.46406 260 ft 4 kts 344°
2026-04-24 15:46 51.97489 15.46345 266 ft 12 kts 313°
2026-04-24 15:47 51.97564 15.46313 271 ft 9 kts 348°
2026-04-24 15:47 51.97631 15.46298 267 ft 10 kts 333°
2026-04-24 15:47 51.97744 15.46176 266 ft 40 kts 308°
2026-04-24 15:47 51.97627 15.45621 477 ft 59 kts 249°
2026-04-24 15:48 51.97455 15.45034 686 ft 61 kts 276°
2026-04-24 15:48 51.97761 15.44677 817 ft 68 kts
2026-04-24 15:48 51.98049 15.45352 1002 ft 77 kts 51°
2026-04-24 15:48 51.98303 15.46152 1116 ft 82 kts 47°
2026-04-24 15:49 51.98610 15.46967 1204 ft 86 kts 45°
2026-04-24 15:49 51.98984 15.47622 1364 ft 70 kts 14°
2026-04-24 15:49 51.99452 15.47524 1389 ft 75 kts 336°
2026-04-24 15:49 51.99948 15.47199 1418 ft 78 kts 333°
2026-04-24 15:50 52.00438 15.46772 1398 ft 82 kts 326°
2026-04-24 15:50 52.00904 15.46261 1437 ft 79 kts 322°
2026-04-24 15:50 52.01335 15.45735 1497 ft 77 kts 323°
2026-04-24 15:50 52.01741 15.45227 1302 ft 63 kts 317°
2026-04-24 15:51 52.01892 15.44871 1184 ft 22 kts 319°
2026-04-24 15:51 52.01957 15.44770 674 ft 43 kts 321°
2026-04-24 15:51 52.02167 15.44317 221 ft 30 kts 345°
2026-04-24 15:51 52.02198 15.44318 157 ft 0 kts 69°